Weather History for Tehachapi, CA

Change the Weather History Date:

Sunday, January 13, 2013

  Actual Average Record
Temperature  
Mean Temperature 24 °F -  
Max Temperature 33 °F 53 °F 57 °F (2012)
Min Temperature 14 °F 31 °F 14 °F (2013)
Degree Days  
Heating Degree Days 42    
Moisture  
Dew Point 15 °F    
Average Humidity 71    
Maximum Humidity 93    
Minimum Humidity 38    
Precipitation  
Precipitation 0.00 in - - ()
Sea Level Pressure  
Sea Level Pressure 30.05 in    
Wind  
Wind Speed 7 mph (North)    
Max Wind Speed 17 mph    
Max Gust Speed 22 mph    
Visibility 9 miles    
Events      
Averages and records for this station are not official NWS values.
T = Trace of Precipitation, MM = Missing Value Source: NWS Daily Summary

Daily Weather History Graph

Daily Weather History Graph

Search for Another Location

Airport:

Trip Planner

Search our weather history database for the weather conditions in past years. The results will help you decide how hot, cold, wet, or windy it might be!

Date:

Astronomy

Jan. 13, 2013 Rise Set
Actual Time 7:01 AM PST 5:03 PM PST
Civil Twilight 6:34 AM PST 5:31 PM PST
Nautical Twilight 6:03 AM PST 6:02 PM PST
Astronomical Twilight 5:32 AM PST 6:32 PM PST
Moon 8:09 AM PST (1/13) 7:39 PM PST (1/13)
Length of Visible Light 10h 56m
Length of Day
10h 01m
Waxing Crescent, 6% of the Moon is Illuminated
Jan 13
Waxing Crescent
Jan 18
First Quarter
Jan 26
Full
Feb 3
Last Quarter
Feb 9
New

Hourly Weather History & Observations

Time (PST) Temp. Windchill Dew Point Humidity Pressure Visibility Wind Dir Wind Speed Gust Speed Precip Events Conditions
12:15 AM 19.4 °F 12.8 °F 17.6 °F 93% 30.04 in 10.0 mi SE 4.6 mph - N/A   Mostly Cloudy
1:35 AM 17.6 °F 9.3 °F 14.0 °F 86% 30.05 in 10.0 mi East 5.8 mph - N/A   Partly Cloudy
1:55 AM 19.4 °F - 15.8 °F 86% 30.05 in 10.0 mi Calm Calm - N/A   Clear
2:35 AM 17.6 °F - 14.0 °F 86% 30.06 in 10.0 mi Calm Calm - N/A   Clear
2:55 AM 17.6 °F 7.3 °F 14.0 °F 86% 30.05 in 10.0 mi SE 8.1 mph - N/A   Clear
3:15 AM 17.6 °F 5.0 °F 14.0 °F 86% 30.05 in 10.0 mi SE 11.5 mph - N/A   Clear
3:35 AM 17.6 °F 5.7 °F 14.0 °F 86% 30.05 in 10.0 mi SE 10.4 mph - N/A   Clear
4:35 AM 17.6 °F 7.3 °F 10.4 °F 73% 30.05 in 10.0 mi East 8.1 mph - N/A   Clear
4:55 AM 19.4 °F 11.5 °F 12.2 °F 74% 30.05 in 10.0 mi East 5.8 mph - N/A   Clear
5:15 AM 15.8 °F 6.1 °F 10.4 °F 79% 30.05 in 10.0 mi SE 6.9 mph - N/A   Clear
5:35 AM 15.8 °F 7.2 °F 10.4 °F 79% 30.05 in 10.0 mi ESE 5.8 mph - N/A   Clear
5:55 AM 14.0 °F 3.9 °F 8.6 °F 79% 30.05 in 10.0 mi SE 6.9 mph - N/A   Clear
6:15 AM 14.0 °F 6.5 °F 8.6 °F 79% 30.06 in 10.0 mi East 4.6 mph - N/A   Clear
6:35 AM 15.8 °F 5.1 °F 10.4 °F 79% 30.07 in 10.0 mi SE 8.1 mph - N/A   Clear
7:15 AM 14.0 °F - 8.6 °F 79% 30.08 in 10.0 mi Calm Calm - N/A   Clear
7:35 AM 15.8 °F - 10.4 °F 79% 30.09 in 10.0 mi Calm Calm - N/A   Clear
7:55 AM 17.6 °F 12.3 °F 10.4 °F 73% 30.09 in 10.0 mi ESE 3.5 mph - N/A   Clear
8:15 AM 19.4 °F 9.5 °F 14.0 °F 80% 30.08 in 10.0 mi ESE 8.1 mph - N/A   Clear
8:35 AM 23.0 °F - 14.0 °F 68% 30.09 in 10.0 mi Calm Calm - N/A   Clear
9:15 AM 26.6 °F - 12.2 °F 55% 30.10 in 10.0 mi Calm Calm - N/A   Clear
9:55 AM 30.2 °F - 8.6 °F 40% 30.10 in 10.0 mi Calm Calm - N/A   Clear
10:15 AM 32.0 °F - 10.4 °F 41% 30.08 in 8.0 mi Calm Calm - N/A   Clear
10:35 AM 32.0 °F 28.7 °F 10.4 °F 41% 30.07 in 9.0 mi NNW 3.5 mph - N/A   Clear
10:55 AM 32.0 °F 26.4 °F 8.6 °F 38% 30.06 in 9.0 mi NW 5.8 mph - N/A   Clear
11:15 AM 32.0 °F 23.6 °F 14.0 °F 48% 30.05 in 10.0 mi NW 10.4 mph - N/A   Clear
11:35 AM 32.0 °F 23.0 °F 15.8 °F 51% 30.04 in 10.0 mi NW 11.5 mph - N/A   Clear
11:55 AM 33.8 °F 24.3 °F 17.6 °F 52% 30.02 in 8.0 mi NW 13.8 mph - N/A   Clear
12:15 PM 32.0 °F 22.5 °F 17.6 °F 55% 30.02 in 10.0 mi NNW 12.7 mph - N/A   Clear
12:35 PM 33.8 °F 24.3 °F 19.4 °F 56% 30.00 in 10.0 mi NW 13.8 mph 18.4 mph N/A   Clear
12:55 PM 32.0 °F 20.8 °F 19.4 °F 60% 30.01 in 10.0 mi NW 17.3 mph - N/A   Clear
1:15 PM 32.0 °F 21.6 °F 19.4 °F 60% 30.01 in 9.0 mi NW 15.0 mph - N/A   Clear
1:35 PM 32.0 °F 21.6 °F 19.4 °F 60% 30.02 in 10.0 mi NW 15.0 mph 20.7 mph N/A   Clear
1:55 PM 32.0 °F 22.1 °F 17.6 °F 55% 30.01 in 10.0 mi NW 13.8 mph 19.6 mph N/A   Clear
2:15 PM 33.8 °F 23.9 °F 15.8 °F 48% 30.01 in 10.0 mi NW 15.0 mph 19.6 mph N/A   Clear
2:35 PM 33.8 °F 23.5 °F 14.0 °F 44% 30.01 in 10.0 mi NNW 16.1 mph 21.9 mph N/A   Clear
2:55 PM 33.8 °F 23.5 °F 14.0 °F 44% 30.01 in 10.0 mi NW 16.1 mph - N/A   Clear
3:15 PM 32.0 °F 21.6 °F 14.0 °F 48% 30.00 in 10.0 mi WNW 15.0 mph - N/A   Clear
3:35 PM 32.0 °F 21.6 °F 15.8 °F 51% 30.00 in 10.0 mi NW 15.0 mph - N/A   Clear
3:55 PM 32.0 °F 21.6 °F 17.6 °F 55% 30.00 in 10.0 mi WNW 15.0 mph 20.7 mph N/A   Clear
4:15 PM 30.2 °F 20.2 °F 19.4 °F 64% 30.01 in 10.0 mi NW 12.7 mph - N/A   Clear
4:35 PM 28.4 °F 17.0 °F 21.2 °F 74% 30.02 in 9.0 mi NW 15.0 mph - N/A   Clear
4:55 PM 26.6 °F 16.2 °F 21.2 °F 80% 30.03 in 9.0 mi WNW 11.5 mph - N/A   Clear
5:15 PM 26.6 °F 17.5 °F 21.2 °F 80% 30.04 in 8.0 mi WNW 9.2 mph - N/A   Partly Cloudy
5:35 PM 24.8 °F 19.1 °F 21.2 °F 86% 30.03 in 8.0 mi NW 4.6 mph - N/A   Partly Cloudy
5:55 PM 24.8 °F 17.9 °F 21.2 °F 86% 30.04 in 7.0 mi West 5.8 mph - N/A   Scattered Clouds
6:15 PM 23.0 °F 18.4 °F 19.4 °F 86% 30.04 in 8.0 mi West 3.5 mph - N/A   Partly Cloudy
6:35 PM 24.8 °F - 21.2 °F 86% 30.04 in 9.0 mi Calm Calm - N/A   Clear
6:55 PM 21.2 °F 14.9 °F 17.6 °F 86% 30.04 in 7.0 mi NE 4.6 mph - N/A   Clear
7:15 PM 19.4 °F - 17.6 °F 93% 30.04 in 8.0 mi Calm Calm - N/A   Clear
7:35 PM 19.4 °F 12.8 °F 17.6 °F 93% 30.04 in 6.0 mi East 4.6 mph - N/A   Clear
7:55 PM 19.4 °F - 17.6 °F 93% 30.05 in 6.0 mi Calm Calm - N/A   Clear
8:15 PM 17.6 °F - 15.8 °F 93% 30.05 in 7.0 mi North - - N/A   Clear
8:35 PM 17.6 °F - 15.8 °F 93% 30.05 in 8.0 mi Calm Calm - N/A   Clear
8:55 PM 17.6 °F - 15.8 °F 93% 30.05 in 8.0 mi Calm Calm - N/A   Clear
9:15 PM 15.8 °F - 14.0 °F 93% 30.06 in 10.0 mi Calm Calm - N/A   Clear
9:35 PM 15.8 °F 8.6 °F 14.0 °F 93% 30.07 in 9.0 mi ESE 4.6 mph - N/A   Clear
9:55 PM 17.6 °F 9.3 °F 14.0 °F 86% 30.07 in 10.0 mi East 5.8 mph - N/A   Clear
10:15 PM 19.4 °F 9.5 °F 14.0 °F 80% 30.08 in 10.0 mi SE 8.1 mph - N/A   Clear
10:55 PM 19.4 °F 6.6 °F 10.4 °F 68% 30.08 in 10.0 mi SE 12.7 mph - N/A   Clear
11:35 PM 23.0 °F 11.1 °F 6.8 °F 50% 30.10 in 10.0 mi ESE 12.7 mph 17.3 mph N/A   Clear
11:55 PM 23.0 °F 11.7 °F 5.0 °F 46% 30.10 in 10.0 mi ESE 11.5 mph 16.1 mph N/A   Clear